Location: Long Island Community Building
(39.9491°N, 99.5338°W)
Time: 08:22:26
(UTC+00:00)

Cosmos 2237 Rocket - Pass Details

Date: 06 December 2019
Orbit: 836 x 849 km, 71.0° (Epoch: 28 January)

Event Time Altitude Azimuth Distance (km) Brightness Sun altitude
Exits shadow 12:17:39 11° 237° (WSW) 2,348 4.1 -16.3°
Drops below altitude 10° 12:18:14 10° 232° (SW) 2,448 4.3 -16.2°
Sets 12:21:51 0° 208° (SSW) 3,374 5.2 -15.5°
